Weather History for Newport Airport, OR

Change the Weather History Date:

Wednesday, March 20, 2013

  Actual Average Record
Temperature  
Mean Temperature 46 °F -  
Max Temperature 51 °F 51 °F 69 °F (2004)
Min Temperature 42 °F 41 °F 32 °F (2006)
Degree Days  
Heating Degree Days 18    
Moisture  
Dew Point 42 °F    
Average Humidity 84    
Maximum Humidity 100    
Minimum Humidity 66    
Precipitation  
Precipitation 0.22 in - - ()
Sea Level Pressure  
Sea Level Pressure 29.88 in    
Wind  
Wind Speed 25 mph (WSW)    
Max Wind Speed 39 mph    
Max Gust Speed 59 mph    
Visibility 6 miles    
Events Rain    
Averages and records for this station are not official NWS values.
T = Trace of Precipitation, MM = Missing Value Source: NWS Daily Summary

Daily Weather History Graph

Daily Weather History Graph

Search for Another Location

Airport:

Trip Planner

Search our weather history database for the weather conditions in past years. The results will help you decide how hot, cold, wet, or windy it might be!

Date:

Astronomy

Mar. 20, 2013 Rise Set
Actual Time 7:18 AM PDT 7:29 PM PDT
Civil Twilight 6:49 AM PDT 7:58 PM PDT
Nautical Twilight 6:15 AM PDT 8:32 PM PDT
Astronomical Twilight 5:40 AM PDT 9:07 PM PDT
Moon 12:56 PM PDT (3/20) 3:15 AM PDT (3/20)
Length of Visible Light 13h 08m
Length of Day
12h 10m
First Quarter, 60% of the Moon is Illuminated
Mar 20
First Quarter
Mar 27
Full
Apr 2
Last Quarter
Apr 10
New
Apr 18
First Quarter

Hourly Weather History & Observations

Time (PDT) Temp. Windchill Dew Point Humidity Pressure Visibility Wind Dir Wind Speed Gust Speed Precip Events Conditions
12:15 AM 50.0 °F - 48.2 °F 94% 29.68 in 7.0 mi South 35.7 mph 44.9 mph N/A   Overcast
12:35 AM 50.0 °F - 48.2 °F 94% 29.68 in 7.0 mi South 27.6 mph 38.0 mph N/A   Overcast
12:55 AM 50.0 °F - 48.2 °F 94% 29.67 in 5.0 mi South 28.8 mph 35.7 mph N/A   Overcast
1:15 AM 51.8 °F - 48.2 °F 88% 29.66 in 7.0 mi South 26.5 mph 40.3 mph N/A   Overcast
1:35 AM 51.8 °F - 48.2 °F 88% 29.65 in 5.0 mi SSW 32.2 mph 55.2 mph N/A Rain Light Rain
1:55 AM 51.8 °F - 48.2 °F 88% 29.64 in 7.0 mi SSW 33.4 mph 47.2 mph N/A Rain Rain
2:15 AM 51.8 °F - 48.2 °F 88% 29.64 in 7.0 mi South 36.8 mph 48.3 mph N/A   Overcast
2:35 AM 50.0 °F - 48.2 °F 94% 29.64 in 5.0 mi South 36.8 mph 48.3 mph N/A Rain Light Rain
2:55 AM 50.0 °F - 48.2 °F 94% 29.64 in 7.0 mi South 35.7 mph 51.8 mph N/A   Overcast
3:15 AM 50.0 °F - 48.2 °F 94% 29.64 in 2.5 mi SSW 36.8 mph 51.8 mph N/A Rain Light Rain
3:35 AM 50.0 °F - 48.2 °F 94% 29.63 in 2.5 mi SSW 36.8 mph 58.7 mph 0.01 in Rain Light Rain
3:55 AM 50.0 °F - 48.2 °F 94% 29.63 in 2.5 mi South 34.5 mph 47.2 mph 0.01 in Rain Light Rain
4:15 AM 50.0 °F - 48.2 °F 94% 29.63 in 4.0 mi South 34.5 mph 54.1 mph N/A Rain Light Rain
4:35 AM 50.0 °F - 48.2 °F 94% 29.62 in 2.5 mi South 39.1 mph 49.5 mph N/A Rain Rain
4:55 AM 50.0 °F - 48.2 °F 94% 29.62 in 4.0 mi South 39.1 mph 54.1 mph 0.01 in Rain Light Rain
5:15 AM 50.0 °F - 48.2 °F 94% 29.63 in 2.5 mi South 27.6 mph 46.0 mph 0.01 in Rain Light Rain
5:35 AM 50.0 °F - 48.2 °F 94% 29.61 in 2.5 mi South 33.4 mph 46.0 mph 0.02 in Rain Rain
5:55 AM 50.0 °F - 48.2 °F 94% 29.60 in 2.5 mi South 32.2 mph 46.0 mph N/A Rain Rain
6:15 AM 50.0 °F - 48.2 °F 94% 29.60 in 2.0 mi SSW 31.1 mph 48.3 mph 0.02 in Rain Rain
6:35 AM 50.0 °F - 48.2 °F 94% 29.60 in 2.5 mi SSW 28.8 mph 44.9 mph 0.09 in Rain Rain
6:55 AM 48.2 °F - 46.4 °F 93% 29.61 in 2.0 mi SW 20.7 mph 31.1 mph 0.12 in Rain Light Rain
7:15 AM 46.4 °F 39.0 °F 46.4 °F 100% 29.61 in 2.0 mi SW 19.6 mph 27.6 mph 0.02 in Rain Rain
7:35 AM 46.4 °F 40.1 °F 46.4 °F 100% 29.60 in 5.0 mi WSW 15.0 mph 26.5 mph 0.03 in   Drizzle
7:55 AM 46.4 °F 38.7 °F 44.6 °F 93% 29.63 in 4.0 mi WSW 20.7 mph 27.6 mph 0.04 in   Overcast
8:15 AM 46.4 °F 40.7 °F 44.6 °F 93% 29.63 in 5.0 mi WSW 12.7 mph 19.6 mph N/A   Overcast
8:35 AM 46.4 °F 41.5 °F 42.8 °F 87% 29.68 in 7.0 mi WSW 10.4 mph 19.6 mph N/A   Overcast
8:55 AM 46.4 °F 40.7 °F 42.8 °F 87% 29.70 in 7.0 mi WSW 12.7 mph 20.7 mph N/A   Overcast
9:15 AM 46.4 °F 40.7 °F 42.8 °F 87% 29.73 in 7.0 mi WSW 12.7 mph 23.0 mph N/A   Overcast
9:35 AM 46.4 °F 41.1 °F 42.8 °F 87% 29.75 in 7.0 mi WSW 11.5 mph - N/A   Overcast
9:55 AM 46.4 °F 39.5 °F 42.8 °F 87% 29.76 in 7.0 mi WSW 17.3 mph 21.9 mph N/A   Overcast
10:15 AM 46.4 °F 40.1 °F 44.6 °F 93% 29.82 in 7.0 mi SW 15.0 mph 23.0 mph N/A   Overcast
10:55 AM 48.2 °F - 42.8 °F 82% 29.86 in 7.0 mi SW 16.1 mph 21.9 mph N/A   Overcast
11:15 AM 48.2 °F - 42.8 °F 82% 29.88 in 7.0 mi WSW 17.3 mph 25.3 mph N/A   Overcast
11:35 AM 46.4 °F 39.5 °F 42.8 °F 87% 29.83 in 4.0 mi WSW 17.3 mph 24.2 mph N/A   Overcast
11:55 AM 46.4 °F 39.5 °F 41.0 °F 81% 29.90 in 7.0 mi WSW 17.3 mph 26.5 mph N/A   Overcast
12:15 PM 48.2 °F - 42.8 °F 82% 29.92 in 7.0 mi WSW 18.4 mph 23.0 mph N/A   Overcast
12:35 PM 44.6 °F 36.6 °F 41.0 °F 87% 29.93 in 5.0 mi West 19.6 mph 29.9 mph N/A Rain Light Rain
12:55 PM 46.4 °F 40.4 °F 41.0 °F 81% 29.94 in 10.0 mi West 13.8 mph 20.7 mph N/A   Mostly Cloudy
1:15 PM 44.6 °F 37.2 °F 41.0 °F 87% 29.96 in 5.0 mi SW 17.3 mph 29.9 mph N/A Rain Light Rain
1:35 PM 44.6 °F 38.4 °F 41.0 °F 87% 29.97 in 10.0 mi WSW 12.7 mph 18.4 mph N/A   Overcast
1:55 PM 44.6 °F 39.2 °F 41.0 °F 87% 29.98 in 4.0 mi West 10.4 mph 31.1 mph 0.01 in Rain Light Rain
2:15 PM 44.6 °F 38.4 °F 41.0 °F 87% 29.98 in 7.0 mi WSW 12.7 mph 21.9 mph N/A Rain Light Rain
2:35 PM 44.6 °F 36.9 °F 41.0 °F 87% 30.00 in 7.0 mi West 18.4 mph 25.3 mph N/A   Overcast
2:55 PM 44.6 °F 38.1 °F 41.0 °F 87% 30.01 in 7.0 mi West 13.8 mph 17.3 mph N/A Rain Light Rain
3:15 PM 46.4 °F 40.1 °F 41.0 °F 81% 30.01 in 10.0 mi WSW 15.0 mph 21.9 mph N/A   Overcast
3:35 PM 46.4 °F 40.7 °F 41.0 °F 81% 30.02 in 7.0 mi West 12.7 mph 18.4 mph N/A   Overcast
3:55 PM 44.6 °F 38.1 °F 37.4 °F 76% 30.03 in 7.0 mi West 13.8 mph 21.9 mph N/A   Overcast
4:15 PM 44.6 °F 38.8 °F 39.2 °F 81% 30.05 in 10.0 mi West 11.5 mph 25.3 mph N/A   Overcast
4:35 PM 46.4 °F 40.1 °F 39.2 °F 76% 30.06 in 7.0 mi NW 15.0 mph 23.0 mph N/A   Overcast
4:55 PM 44.6 °F 39.2 °F 41.0 °F 87% 30.07 in 7.0 mi WNW 10.4 mph - N/A   Overcast
5:15 PM 42.8 °F 34.0 °F 37.4 °F 81% 30.08 in 5.0 mi West 20.7 mph 29.9 mph 0.01 in Rain Rain
5:35 PM 44.6 °F 38.4 °F 41.0 °F 87% 30.08 in 7.0 mi West 12.7 mph 17.3 mph 0.01 in   Overcast
5:55 PM 46.4 °F 39.8 °F 35.6 °F 66% 30.09 in 7.0 mi WNW 16.1 mph 24.2 mph 0.01 in   Overcast
6:15 PM 44.6 °F 37.2 °F 35.6 °F 71% 30.09 in 7.0 mi West 17.3 mph 25.3 mph N/A   Mostly Cloudy
6:35 PM 44.6 °F 37.8 °F 35.6 °F 71% 30.11 in 7.0 mi WNW 15.0 mph 21.9 mph N/A   Overcast
6:55 PM 44.6 °F 37.4 °F 35.6 °F 71% 30.12 in 7.0 mi WNW 16.1 mph 20.7 mph N/A   Overcast
7:15 PM 44.6 °F 37.2 °F 33.8 °F 66% 30.14 in 7.0 mi West 17.3 mph 20.7 mph N/A   Overcast
7:35 PM 44.6 °F 38.4 °F 33.8 °F 66% 30.15 in 7.0 mi WNW 12.7 mph 23.0 mph N/A   Overcast
7:55 PM 44.6 °F 38.4 °F 33.8 °F 66% 30.16 in 10.0 mi WNW 12.7 mph 23.0 mph N/A   Overcast
8:15 PM 42.8 °F 35.1 °F 33.8 °F 70% 30.17 in 10.0 mi WNW 16.1 mph 20.7 mph N/A   Mostly Cloudy
8:35 PM 44.6 °F 38.1 °F 33.8 °F 66% - 10.0 mi WNW 13.8 mph 19.6 mph N/A   Scattered Clouds
8:55 PM 42.8 °F 36.6 °F 32.0 °F 66% 30.18 in 10.0 mi WNW 11.5 mph 19.6 mph N/A   Scattered Clouds
9:15 PM 44.6 °F 38.8 °F 35.6 °F 71% 30.19 in 7.0 mi WNW 11.5 mph 18.4 mph N/A   Mostly Cloudy
9:35 PM 42.8 °F 36.2 °F 35.6 °F 76% 30.20 in 7.0 mi NW 12.7 mph 16.1 mph N/A   Overcast
9:55 PM 42.8 °F 36.6 °F 35.6 °F 76% 30.21 in 7.0 mi WNW 11.5 mph 16.1 mph N/A   Overcast
10:15 PM 42.8 °F 35.8 °F 32.0 °F 66% 30.22 in 7.0 mi West 13.8 mph 19.6 mph N/A   Mostly Cloudy
10:35 PM 42.8 °F 37.5 °F 33.8 °F 70% 30.22 in 10.0 mi West 9.2 mph - N/A   Scattered Clouds
11:15 PM 44.6 °F 38.1 °F 33.8 °F 66% 30.24 in 10.0 mi West 13.8 mph 18.4 mph N/A   Mostly Cloudy
11:35 PM 42.8 °F 36.2 °F 35.6 °F 76% 30.24 in 7.0 mi West 12.7 mph 19.6 mph N/A   Mostly Cloudy
11:55 PM 42.8 °F 35.8 °F 33.8 °F 70% 30.25 in 7.0 mi West 13.8 mph 17.3 mph N/A   Mostly Cloudy